Location: ?????
(37.7324°N, 23.9257°E)
Time: 08:20:11
(UTC+00:00)

Cosmos 1898 Rocket - Pass Details

Date: 29 November 2020
Orbit: 754 x 783 km, 74.0° (Epoch: 17 January)

Event Time Altitude Azimuth Distance (km) Brightness Sun altitude
Rises 03:02:02 0° 184° (S) 3,236 6.8 -26.6°
Reaches altitude 10° 03:04:26 10° 179° (S) 2,317 6.1 -26.1°
Maximum altitude 03:09:33 53° 104° (ESE) 953 4.2 -25.1°
Drops below altitude 10° 03:14:43 10° 28° (NNE) 2,343 6.2 -24.1°
Sets 03:17:09 0° 24° (NNE) 3,277 6.9 -23.6°
